Akron, OH

1:50 PM EDT on May 27, 2017 (GMT -0400)
Akron Fulton International

Weather History for KAKR - March, 2013

Change the Weather History Date:

Saturday, March 2, 2013

  Actual Average (KCAK) Record (KCAK)
Temperature  
Mean Temperature 26 °F -  
Max Temperature 28 °F 45 °F 69 °F (1991)
Min Temperature 23 °F 25 °F -3 °F (1980)
Degree Days  
Heating Degree Days 40    
Moisture  
Dew Point 20 °F    
Average Humidity 78    
Maximum Humidity 86    
Minimum Humidity 69    
Precipitation  
Precipitation 0.00 in - - ()
Sea Level Pressure  
Sea Level Pressure 29.97 in    
Wind  
Wind Speed 9 mph (NNW)    
Max Wind Speed 15 mph    
Max Gust Speed 21 mph    
Visibility 6 miles    
Events Snow    
Averages and records for this station are not official NWS values.
T = Trace of Precipitation, MM = Missing Value Source: NWS Daily Summary

Daily Weather History Graph

Daily Weather History Graph

Search for Another Location

Airport or City:

Trip Planner

Search our weather history database for the weather conditions in past years. The results will help you decide how hot, cold, wet, or windy it might be!

Date:

Astronomy

Mar. 02, 2013 Rise Set
Actual Time 6:58 AM EST 6:18 PM EST
Civil Twilight 6:30 AM EST 6:45 PM EST
Nautical Twilight 5:58 AM EST 7:17 PM EST
Astronomical Twilight 5:26 AM EST 7:49 PM EST
Moon 11:59 PM EST (3/2) 9:22 AM EST (3/2)
Length of Visible Light 12h 15m
Length of Day
11h 20m
Waning Gibbous, 74% of the Moon is Illuminated
Mar 2
Waning Gibbous
Mar 4
Last Quarter
Mar 11
New
Mar 19
First Quarter
Mar 27
Full

Hourly Weather History & Observations

Time (EST) Temp. Windchill Dew Point Humidity Pressure Visibility Wind Dir Wind Speed Gust Speed Precip Events Conditions
12:35 AM 24.8 °F 14.6 °F 21.2 °F 86% 29.96 in 10.0 mi North 10.4 mph - N/A   Overcast
12:54 AM 25.0 °F 17.1 °F 21.0 °F 85% 30.00 in 5.0 mi North 6.9 mph - N/A   Overcast
1:54 AM 24.8 °F 16.1 °F 19.4 °F 80% 29.97 in 9.0 mi North 8.1 mph - N/A   Overcast
2:54 AM 24.1 °F 14.4 °F 19.0 °F 81% 30.00 in 10.0 mi NNW 9.2 mph - 0.00 in   Overcast
3:54 AM 24.1 °F 16.0 °F 19.0 °F 81% 29.99 in 10.0 mi North 6.9 mph - N/A   Overcast
4:54 AM 24.1 °F 16.0 °F 18.0 °F 77% 29.99 in 4.0 mi North 6.9 mph - 0.00 in Snow Light Snow
5:17 AM 24.8 °F 17.9 °F 19.4 °F 80% 29.95 in 2.5 mi NNE 5.8 mph - 0.00 in Snow Light Snow
5:28 AM 24.8 °F 17.9 °F 19.4 °F 80% 29.95 in 4.0 mi North 5.8 mph - 0.00 in Snow Light Snow
5:54 AM 23.0 °F 14.7 °F 19.0 °F 85% 29.99 in 3.0 mi NNW 6.9 mph - 0.00 in Snow Light Snow
6:21 AM 23.0 °F 15.8 °F 19.4 °F 86% 29.95 in 4.0 mi NW 5.8 mph - 0.00 in Snow Light Snow
7:26 AM 24.8 °F 16.9 °F 19.4 °F 80% 29.95 in 3.0 mi North 6.9 mph - 0.00 in Snow Light Snow
7:37 AM 24.8 °F 19.1 °F 19.4 °F 80% 29.95 in 3.0 mi NNW 4.6 mph - 0.00 in Snow Light Snow
7:46 AM 24.8 °F 19.1 °F 19.4 °F 80% 29.95 in 2.0 mi North 4.6 mph - 0.00 in Snow Light Snow
7:54 AM 24.1 °F 17.0 °F 19.9 °F 84% 29.99 in 2.0 mi NNW 5.8 mph - 0.00 in Snow Light Snow
8:10 AM 24.8 °F 16.9 °F 19.4 °F 80% 29.96 in 2.0 mi North 6.9 mph - 0.00 in Snow Light Snow
8:33 AM 24.8 °F 14.6 °F 19.4 °F 80% 29.96 in 4.0 mi North 10.4 mph - 0.00 in   Haze
8:54 AM 25.0 °F 13.6 °F 18.0 °F 75% 30.00 in 10.0 mi North 12.7 mph - 0.00 in   Overcast
9:02 AM 24.8 °F 14.0 °F 17.6 °F 74% 29.96 in 10.0 mi North 11.5 mph - N/A   Mostly Cloudy
9:18 AM 26.6 °F 15.7 °F 17.6 °F 69% 29.96 in 10.0 mi North 12.7 mph - N/A   Mostly Cloudy
9:31 AM 24.8 °F 15.3 °F 17.6 °F 74% 29.96 in 10.0 mi North 9.2 mph - N/A   Mostly Cloudy
9:45 AM 26.6 °F 15.7 °F 17.6 °F 69% 29.95 in 10.0 mi North 12.7 mph - N/A   Overcast
9:54 AM 27.0 °F 16.7 °F 18.0 °F 69% 29.99 in 10.0 mi North 11.5 mph - N/A   Overcast
10:41 AM 26.6 °F 18.2 °F 19.4 °F 74% 29.95 in 2.0 mi North 8.1 mph - 0.00 in Snow Light Snow
10:54 AM 26.1 °F 16.8 °F 19.9 °F 78% 29.99 in 2.0 mi NNW 9.2 mph - 0.00 in Snow Light Snow
11:04 AM 26.6 °F 17.5 °F 19.4 °F 74% 29.95 in 6.0 mi NNW 9.2 mph - 0.00 in Snow Light Snow
11:54 AM 28.9 °F 18.6 °F 21.0 °F 72% 29.99 in 4.0 mi North 12.7 mph 18.4 mph 0.00 in Snow Light Snow
12:05 PM 26.6 °F 17.5 °F 19.4 °F 74% 29.95 in 2.5 mi NNW 9.2 mph - 0.00 in Snow Light Snow
12:12 PM 26.6 °F 15.2 °F 19.4 °F 74% 29.95 in 4.0 mi NNW 13.8 mph 18.4 mph 0.00 in Snow Light Snow
12:25 PM 26.6 °F 14.7 °F 19.4 °F 74% 29.95 in 2.0 mi NNW 15.0 mph - 0.00 in Snow Light Snow
12:33 PM 26.6 °F 16.2 °F 21.2 °F 80% 29.95 in 3.0 mi North 11.5 mph - 0.00 in Snow Light Snow
12:44 PM 26.6 °F 16.8 °F 21.2 °F 80% 29.95 in 1.8 mi North 10.4 mph - 0.00 in Snow Light Snow
12:54 PM 27.0 °F 17.3 °F 21.0 °F 78% 29.99 in 1.5 mi NNW 10.4 mph - 0.00 in Snow Light Snow
12:58 PM 26.6 °F 16.8 °F 21.2 °F 80% 29.94 in 3.0 mi North 10.4 mph - 0.00 in Snow Light Snow
1:16 PM 26.6 °F 16.8 °F 19.4 °F 74% 29.94 in 9.0 mi North 10.4 mph - 0.00 in   Overcast
1:37 PM 26.6 °F 16.8 °F 21.2 °F 80% 29.94 in 2.0 mi NNW 10.4 mph - 0.00 in Snow Light Snow
1:50 PM 26.6 °F 16.8 °F 19.4 °F 74% 29.94 in 7.0 mi NNW 10.4 mph - 0.00 in   Overcast
1:54 PM 26.1 °F 16.2 °F 19.9 °F 78% 29.98 in 7.0 mi NNW 10.4 mph - 0.00 in   Overcast
2:54 PM 27.0 °F 16.7 °F 19.9 °F 75% 29.98 in 9.0 mi North 11.5 mph - N/A   Overcast
3:54 PM 27.0 °F 16.1 °F 19.9 °F 75% 29.98 in 6.0 mi North 12.7 mph - N/A   Haze
4:43 PM 26.6 °F 18.2 °F 19.4 °F 74% 29.94 in 6.0 mi North 8.1 mph - N/A   Haze
4:54 PM 27.0 °F 16.7 °F 19.9 °F 75% 29.98 in 7.0 mi North 11.5 mph - N/A   Overcast
5:54 PM 27.0 °F 18.0 °F 19.9 °F 75% 29.99 in 6.0 mi NNW 9.2 mph - 0.00 in Snow Light Snow
6:54 PM 26.1 °F 16.2 °F 19.9 °F 78% 30.00 in 10.0 mi NW 10.4 mph - 0.00 in   Overcast
7:46 PM 26.6 °F 16.2 °F 21.2 °F 80% 29.96 in 4.0 mi NNW 11.5 mph - 0.00 in Snow Light Snow
7:54 PM 26.1 °F 16.2 °F 21.9 °F 84% 30.00 in 5.0 mi NNW 10.4 mph - 0.00 in Snow Light Snow
8:18 PM 26.6 °F 15.7 °F 21.2 °F 80% 29.96 in 9.0 mi NNW 12.7 mph - 0.00 in   Overcast
8:36 PM 26.6 °F 15.2 °F 21.2 °F 80% 29.96 in 10.0 mi NNW 13.8 mph - 0.00 in   Overcast
8:54 PM 26.1 °F 15.0 °F 21.0 °F 81% 30.01 in 10.0 mi NNW 12.7 mph 20.7 mph 0.00 in   Overcast
9:54 PM 26.1 °F 16.8 °F 21.0 °F 81% 30.01 in 8.0 mi North 9.2 mph - 0.00 in Snow Light Snow
10:54 PM 26.1 °F 18.4 °F 21.9 °F 84% 30.00 in 6.0 mi North 6.9 mph - 0.00 in Snow Light Snow
11:54 PM 25.0 °F 14.2 °F 21.0 °F 85% 29.99 in 3.0 mi NW 11.5 mph - 0.00 in Snow Light Snow